Flag for U.S.A. Weather past 2 weeks in Lakewood, Colorado, U.S.A.

Now
66 °F

Passing clouds.


Feels Like: 66 °F
Forecast: 38 / 67 °F
Wind: 5 mph from Southeast

Location: Centennial Airport

Current Time: Jan 26, 2015 at 3:40:39 PM

Latest Report: Jan 26, 2015 at 2:53 PM


Visibility: 10 mi

Pressure: 30.16 "Hg

Humidity: 17%

Dew point: 20 °F

Location of LakewoodLocation

Historic Weather in Lakewood — Graph

°F

Lakewood temperature yesterday

Maximum temperature yesterday: 57 °F (at 1:53 PM)
Minimum temperature yesterday: 25 °F (at 4:53 AM)
Average temperature yesterday: 43 °F

Past Weeks' High & Low Weather Summary

 TemperatureHumidityPressure
High68 °F (Jan 26, 12:53 PM)100% (Jan 12, 6:53 PM)30.51 "Hg (Jan 12, 6:53 PM)
Low7 °F (Jan 22, 3:53 AM)11% (Jan 17, 1:53 PM)29.82 "Hg (Jan 16, 3:53 PM)
Average35 °F58%30.21 "Hg
* Reported Jan 11 1:53 PM — Jan 26 1:53 PM, Lakewood, Weather by CustomWeather, © 2014

Note: Actual official high and low records may vary slightly from our data, if they occured in-between our weather recording intervals... More about our weather records

Advertising

Lakewood weather history for previous 24 hours

 ConditionsComfort  
Time TempWeatherWind HumidityBarometerVisibility
1:53 PM
Jan 26
67 °FSunny.9 mph15%30.16 "Hg10 mi
12:53 PM68 °FSunny.7 mph15%30.19 "Hg10 mi
11:53 AM67 °FSunny.6 mph15%30.22 "Hg10 mi
10:53 AM63 °FSunny.6 mph20%30.24 "Hg10 mi
9:53 AM57 °FPassing clouds.12 mph26%30.24 "Hg10 mi
8:53 AM49 °FPassing clouds.5 mph43%30.27 "Hg10 mi
7:53 AM42 °FPassing clouds.5 mph47%30.26 "Hg10 mi
6:53 AM37 °FPassing clouds.9 mph57%30.26 "Hg10 mi
5:53 AM38 °FClear.6 mph55%30.22 "Hg10 mi
4:53 AM38 °FClear.8 mph55%30.20 "Hg10 mi
3:53 AM37 °FClear.8 mph60%30.18 "Hg10 mi
2:53 AM36 °FClear.6 mph64%30.19 "Hg10 mi
1:53 AM37 °FClear.8 mph65%30.19 "Hg10 mi
12:53 AM34 °FClear.No wind67%30.20 "Hg10 mi
11:53 PM
Jan 25
35 °FClear.No wind70%30.21 "Hg10 mi
10:53 PM41 °FClear.8 mph53%30.19 "Hg10 mi
9:53 PM44 °FClear.No wind43%30.18 "Hg10 mi
8:53 PM39 °FPassing clouds.6 mph55%30.21 "Hg10 mi
7:53 PM47 °FPassing clouds.7 mph39%30.21 "Hg10 mi
6:53 PM48 °FPassing clouds.8 mph36%30.20 "Hg10 mi
5:53 PM50 °FPassing clouds.9 mph32%30.17 "Hg10 mi
4:53 PM52 °FScattered clouds.8 mph31%30.16 "Hg10 mi
3:53 PM56 °FPartly sunny.15 mph27%30.11 "Hg10 mi
Weather by CustomWeather, © 2014

See weather overviewHow to use our weather pages